Location: Fort Wayne
(41.1310°N, 85.1290°W)
Time: 07:26:01
(UTC-04:00)

Meteor 2-9 Rocket - Visible Passes

Search period start: 29 April 2017 00:00
Search period end: 09 May 2017 00:00
Orbit: 791 x 896 km, 81.3° (Epoch: 27 April)

Date Brightness Start Highest point End Pass type
(mag) Time Alt. Az. Time Alt. Az. Time Alt. Az.
29 Apr 5.4 01:18:19 10° N 01:21:40 35° NNE 01:21:40 35° NNE visible
29 Apr 6.2 03:02:06 10° NW 03:03:32 15° NW 03:03:32 15° NW visible
30 Apr 5.4 01:04:16 10° N 01:07:41 33° NE 01:07:41 33° NE visible
30 Apr 6.1 02:47:44 10° NW 02:49:32 17° NW 02:49:32 17° NW visible
01 May 5.5 00:50:13 10° N 00:53:42 31° NE 00:53:42 31° NE visible
01 May 6.0 02:33:23 10° NW 02:35:33 20° NW 02:35:33 20° NW visible
02 May 5.5 00:36:12 10° N 00:39:43 29° NE 00:39:43 29° NE visible
02 May 5.9 02:19:06 10° NNW 02:21:35 22° NW 02:21:35 22° NW visible
03 May 5.6 00:22:11 10° NNE 00:25:46 27° NE 00:25:46 27° NE visible
03 May 5.7 02:04:50 10° NNW 02:07:37 25° NW 02:07:37 25° NW visible
04 May 5.6 00:08:13 10° NNE 00:11:49 25° ENE 00:11:49 25° ENE visible
04 May 5.6 01:50:35 10° NNW 01:53:40 29° NW 01:53:40 29° NW visible
04 May 5.7 23:54:15 10° NNE 23:57:52 22° ENE 23:57:52 22° ENE visible
05 May 5.4 01:36:21 10° NNW 01:39:44 34° NW 01:39:44 34° NW visible
05 May 5.8 23:40:20 10° NNE 23:43:57 20° ENE 23:43:57 20° ENE visible
06 May 5.2 01:22:08 10° NNW 01:25:48 39° NW 01:25:48 39° NW visible
06 May 5.9 23:26:27 10° NNE 23:30:00 18° ENE 23:30:02 18° ENE visible
07 May 4.9 01:07:56 10° NNW 01:11:54 45° NW 01:11:54 45° NW visible
07 May 6.0 23:12:38 10° NNE 23:15:47 16° ENE 23:16:08 15° ENE visible
08 May 4.7 00:53:46 10° NNW 00:58:00 53° NW 00:58:00 53° NW visible
08 May 6.1 22:58:54 10° NE 23:01:34 14° ENE 23:02:15 13° ENE visible
